| time (UTC) | temp F | wind direction | speed MPH | gust MPH | rain 1hr in | rain 24hr in | rain mn in | humidity % | barometer mb |
| 20260507210503 | 51 | 0 | 0.0 | 0.0 | 0.00 | 0.00 | 0.00 | 86 | 1012.2 |
| 20260507210005 | 51 | 0 | 0.0 | 0.0 | 0.00 | 0.00 | 0.00 | 86 | 1012.3 |
| 20260507205503 | 51 | 0 | 0.0 | 0.0 | 0.00 | 0.00 | 0.00 | 85 | 1012.3 |
| 20260507205005 | 51 | 0 | 0.0 | 0.0 | 0.00 | 0.00 | 0.00 | 85 | 1012.3 |
| 20260507204719 | 51 | 0 | 0.0 | 0.0 | 0.00 | 0.00 | 0.00 | 84 | 1012.4 |
| 20260507204003 | 51 | 168 | 0.0 | 2.0 | 0.00 | 0.00 | 0.00 | 84 | 1012.1 |
| 20260507203503 | 51 | 165 | 1.0 | 4.0 | 0.00 | 0.00 | 0.00 | 84 | 1012.2 |
| 20260507203005 | 51 | 163 | 1.0 | 4.0 | 0.00 | 0.00 | 0.00 | 84 | 1012.1 |
| 20260507202505 | 51 | 160 | 1.0 | 2.0 | 0.00 | 0.00 | 0.00 | 84 | 1012.1 |
| 20260507202005 | 51 | 164 | 0.0 | 2.0 | 0.00 | 0.00 | 0.00 | 84 | 1012.0 |
| 20260507201504 | 51 | 173 | 0.0 | 2.0 | 0.00 | 0.00 | 0.00 | 84 | 1012.0 |
| 20260507201005 | 51 | 170 | 0.0 | 4.0 | 0.00 | 0.00 | 0.00 | 83 | 1011.7 |
| 20260507200505 | 52 | 172 | 1.0 | 4.0 | 0.00 | 0.00 | 0.00 | 83 | 1011.8 |
| 20260507200220 | 52 | 178 | 1.0 | 4.0 | 0.00 | 0.00 | 0.00 | 83 | 1012.1 |
| 20260507195719 | 52 | 187 | 1.0 | 4.0 | 0.00 | 0.00 | 0.00 | 82 | 1011.9 |
| 20260507195005 | 52 | 180 | 1.0 | 4.0 | 0.00 | 0.00 | 0.00 | 81 | 1011.9 |
| 20260507194505 | 52 | 175 | 0.0 | 2.0 | 0.00 | 0.00 | 0.00 | 81 | 1011.8 |
| 20260507194005 | 52 | 212 | 0.0 | 2.0 | 0.00 | 0.00 | 0.00 | 81 | 1011.7 |
| 20260507193505 | 52 | 204 | 1.0 | 2.0 | 0.00 | 0.00 | 0.00 | 81 | 1011.8 |
| 20260507193003 | 52 | 200 | 1.0 | 4.0 | 0.00 | 0.00 | 0.00 | 80 | 1011.9 |
| 20260507192506 | 52 | 220 | 2.0 | 4.0 | 0.00 | 0.00 | 0.00 | 80 | 1011.8 |
| 20260507192003 | 53 | 226 | 2.0 | 4.0 | 0.00 | 0.00 | 0.00 | 80 | 1011.5 |
| 20260507191503 | 53 | 192 | 1.0 | 4.0 | 0.00 | 0.00 | 0.00 | 79 | 1011.7 |
| 20260507191003 | 54 | 196 | 1.0 | 4.0 | 0.00 | 0.00 | 0.00 | 77 | 1011.5 |
| 20260507190505 | 54 | 226 | 2.0 | 4.0 | 0.00 | 0.00 | 0.00 | 78 | 1011.4 |
| 20260507190004 | 54 | 221 | 2.0 | 4.0 | 0.00 | 0.00 | 0.00 | 77 | 1011.6 |
| 20260507185503 | 55 | 204 | 1.0 | 2.0 | 0.00 | 0.00 | 0.00 | 75 | 1011.3 |
| 20260507185005 | 55 | 203 | 2.0 | 2.0 | 0.00 | 0.00 | 0.00 | 75 | 1011.5 |
| 20260507184506 | 55 | 190 | 2.0 | 7.0 | 0.00 | 0.00 | 0.00 | 74 | 1011.6 |
| 20260507184003 | 55 | 183 | 3.0 | 7.0 | 0.00 | 0.00 | 0.00 | 73 | 1011.6 |
| 20260507183505 | 56 | 163 | 4.0 | 9.0 | 0.00 | 0.00 | 0.00 | 72 | 1011.6 |
| 20260507183005 | 56 | 169 | 3.0 | 9.0 | 0.00 | 0.00 | 0.00 | 72 | 1011.7 |
| 20260507182503 | 56 | 187 | 3.0 | 7.0 | 0.00 | 0.00 | 0.00 | 73 | 1011.4 |
| 20260507182005 | 56 | 174 | 3.0 | 4.0 | 0.00 | 0.00 | 0.00 | 72 | 1011.4 |
| 20260507181718 | 56 | 181 | 2.0 | 4.0 | 0.00 | 0.00 | 0.00 | 71 | 1011.5 |
| 20260507181003 | 56 | 191 | 1.0 | 7.0 | 0.00 | 0.00 | 0.00 | 73 | 1011.5 |
| 20260507180718 | 56 | 214 | 2.0 | 7.0 | 0.00 | 0.00 | 0.00 | 72 | 1011.5 |
| 20260507180005 | 56 | 231 | 4.0 | 9.0 | 0.00 | 0.00 | 0.00 | 72 | 1011.4 |
| 20260507175718 | 56 | 224 | 3.0 | 9.0 | 0.00 | 0.00 | 0.00 | 72 | 1011.4 |
| 20260507175005 | 57 | 208 | 3.0 | 9.0 | 0.00 | 0.00 | 0.00 | 70 | 1011.3 |
| 20260507174505 | 57 | 216 | 2.0 | 7.0 | 0.00 | 0.00 | 0.00 | 71 | 1011.6 |
| 20260507174005 | 57 | 243 | 2.0 | 9.0 | 0.00 | 0.00 | 0.00 | 72 | 1011.6 |
| 20260507173505 | 57 | 248 | 1.0 | 9.0 | 0.00 | 0.00 | 0.00 | 72 | 1011.6 |
| 20260507173005 | 58 | 247 | 1.0 | 4.0 | 0.00 | 0.00 | 0.00 | 74 | 1011.6 |
| 20260507172503 | 57 | 242 | 1.0 | 4.0 | 0.00 | 0.00 | 0.00 | 76 | 1011.2 |
| 20260507172005 | 56 | 234 | 2.0 | 9.0 | 0.00 | 0.00 | 0.00 | 77 | 1011.5 |
| 20260507171505 | 55 | 235 | 3.0 | 9.0 | 0.00 | 0.00 | 0.00 | 75 | 1011.5 |
| 20260507171005 | 55 | 242 | 4.0 | 12.0 | 0.00 | 0.00 | 0.00 | 76 | 1011.7 |
| 20260507170503 | 55 | 244 | 4.0 | 12.0 | 0.00 | 0.00 | 0.00 | 76 | 1011.8 |
| 20260507170005 | 56 | 239 | 3.0 | 7.0 | 0.00 | 0.00 | 0.00 | 77 | 1011.8 |
| 20260507165506 | 56 | 240 | 3.0 | 12.0 | 0.00 | 0.00 | 0.00 | 77 | 1011.5 |
| 20260507165003 | 55 | 239 | 4.0 | 12.0 | 0.00 | 0.00 | 0.00 | 77 | 1011.7 |
| 20260507164505 | 55 | 244 | 6.0 | 12.0 | 0.00 | 0.00 | 0.00 | 75 | 1011.8 |
| 20260507164003 | 55 | 246 | 6.0 | 14.0 | 0.00 | 0.00 | 0.00 | 76 | 1011.6 |
| 20260507163505 | 55 | 236 | 7.0 | 14.0 | 0.00 | 0.00 | 0.00 | 76 | 1011.8 |
| 20260507163005 | 55 | 233 | 7.0 | 16.0 | 0.00 | 0.00 | 0.00 | 76 | 1011.5 |
| 20260507162503 | 55 | 233 | 8.0 | 18.0 | 0.00 | 0.00 | 0.00 | 75 | 1011.5 |
| 20260507162005 | 56 | 233 | 8.0 | 18.0 | 0.00 | 0.00 | 0.00 | 74 | 1011.6 |
| 20260507161503 | 57 | 235 | 9.0 | 18.0 | 0.00 | 0.00 | 0.00 | 76 | 1011.4 |
| 20260507161005 | 57 | 236 | 9.0 | 18.0 | 0.00 | 0.00 | 0.00 | 76 | 1011.5 |
| 20260507160505 | 58 | 235 | 8.0 | 16.0 | 0.00 | 0.00 | 0.00 | 73 | 1011.6 |
| 20260507160005 | 58 | 221 | 7.0 | 16.0 | 0.00 | 0.00 | 0.00 | 74 | 1011.6 |
| 20260507155503 | 59 | 236 | 7.0 | 14.0 | 0.00 | 0.00 | 0.00 | 72 | 1011.5 |
| 20260507155005 | 58 | 253 | 8.0 | 16.0 | 0.00 | 0.00 | 0.00 | 72 | 1011.4 |
| 20260507154505 | 58 | 234 | 7.0 | 16.0 | 0.00 | 0.00 | 0.00 | 73 | 1011.8 |
| 20260507154005 | 58 | 237 | 6.0 | 18.0 | 0.00 | 0.00 | 0.00 | 75 | 1011.5 |
| 20260507153504 | 58 | 234 | 7.0 | 18.0 | 0.00 | 0.00 | 0.00 | 74 | 1011.5 |
| 20260507153005 | 58 | 239 | 7.0 | 18.0 | 0.00 | 0.00 | 0.00 | 72 | 1011.5 |
| 20260507152504 | 59 | 241 | 6.0 | 14.0 | 0.00 | 0.00 | 0.00 | 70 | 1011.3 |
| 20260507152005 | 57 | 232 | 6.0 | 16.0 | 0.00 | 0.00 | 0.00 | 73 | 1011.5 |
| 20260507151505 | 57 | 220 | 6.0 | 16.0 | 0.00 | 0.00 | 0.00 | 74 | 1011.6 |
| 20260507151220 | 57 | 210 | 6.0 | 16.0 | 0.00 | 0.00 | 0.00 | 72 | 1011.8 |
| 20260507150503 | 57 | 187 | 5.0 | 14.0 | 0.00 | 0.00 | 0.00 | 72 | 1011.7 |
| 20260507150005 | 57 | 227 | 5.0 | 16.0 | 0.00 | 0.00 | 0.00 | 71 | 1011.7 |
| 20260507145503 | 56 | 240 | 6.0 | 16.0 | 0.00 | 0.00 | 0.00 | 74 | 1011.8 |
| 20260507145218 | 56 | 239 | 6.0 | 16.0 | 0.00 | 0.00 | 0.00 | 73 | 1011.8 |
| 20260507144505 | 56 | 238 | 7.0 | 16.0 | 0.00 | 0.00 | 0.00 | 72 | 1011.7 |
| 20260507144003 | 57 | 233 | 6.0 | 14.0 | 0.00 | 0.00 | 0.00 | 72 | 1011.7 |
| 20260507143717 | 57 | 223 | 5.0 | 14.0 | 0.00 | 0.00 | 0.00 | 71 | 1011.7 |
| 20260507143008 | 58 | 217 | 6.0 | 16.0 | 0.00 | 0.00 | 0.00 | 74 | 1011.7 |
| 20260507142505 | 58 | 231 | 8.0 | 16.0 | 0.00 | 0.00 | 0.00 | 71 | 1011.8 |
| 20260507142220 | 58 | 231 | 7.0 | 14.0 | 0.00 | 0.00 | 0.00 | 71 | 1011.8 |
| 20260507141505 | 58 | 219 | 8.0 | 16.0 | 0.00 | 0.00 | 0.00 | 71 | 1012.0 |
| 20260507141003 | 57 | 225 | 8.0 | 16.0 | 0.00 | 0.00 | 0.00 | 68 | 1011.9 |
| 20260507140505 | 58 | 239 | 8.0 | 18.0 | 0.00 | 0.00 | 0.00 | 67 | 1011.9 |
| 20260507140220 | 57 | 236 | 8.0 | 18.0 | 0.00 | 0.00 | 0.00 | 67 | 1011.8 |
| 20260507135716 | 57 | 227 | 6.0 | 16.0 | 0.00 | 0.00 | 0.00 | 70 | 1011.7 |
| 20260507135003 | 57 | 233 | 8.0 | 21.0 | 0.00 | 0.00 | 0.00 | 67 | 1012.0 |
| 20260507134505 | 56 | 224 | 7.0 | 21.0 | 0.00 | 0.00 | 0.00 | 69 | 1012.0 |
| 20260507134003 | 57 | 223 | 7.0 | 14.0 | 0.00 | 0.00 | 0.00 | 64 | 1012.1 |
| 20260507133505 | 56 | 225 | 8.0 | 18.0 | 0.00 | 0.01 | 0.00 | 67 | 1012.1 |
| 20260507133219 | 56 | 231 | 9.0 | 18.0 | 0.00 | 0.01 | 0.00 | 65 | 1012.1 |
| 20260507132504 | 56 | 238 | 9.0 | 21.0 | 0.00 | 0.01 | 0.00 | 63 | 1012.0 |
| 20260507132006 | 56 | 234 | 9.0 | 21.0 | 0.00 | 0.01 | 0.00 | 66 | 1012.3 |
| 20260507131503 | 56 | 240 | 9.0 | 18.0 | 0.00 | 0.01 | 0.00 | 67 | 1012.1 |
| 20260507131005 | 57 | 231 | 8.0 | 16.0 | 0.00 | 0.01 | 0.00 | 69 | 1012.1 |
| 20260507130505 | 57 | 213 | 7.0 | 16.0 | 0.00 | 0.01 | 0.00 | 72 | 1011.9 |
| 20260507130219 | 56 | 219 | 6.0 | 16.0 | 0.00 | 0.01 | 0.00 | 73 | 1012.0 |
| 20260507125503 | 56 | 227 | 6.0 | 16.0 | 0.00 | 0.01 | 0.00 | 72 | 1012.1 |
| 20260507125005 | 56 | 217 | 7.0 | 16.0 | 0.00 | 0.01 | 0.00 | 73 | 1012.2 |
| 20260507124503 | 56 | 229 | 7.0 | 16.0 | 0.00 | 0.01 | 0.00 | 72 | 1012.0 |
| 20260507124003 | 56 | 216 | 7.0 | 18.0 | 0.00 | 0.01 | 0.00 | 74 | 1012.2 |
| 20260507123503 | 56 | 224 | 7.0 | 18.0 | 0.00 | 0.01 | 0.00 | 76 | 1012.0 |
| 20260507123006 | 55 | 229 | 6.0 | 14.0 | 0.00 | 0.01 | 0.00 | 74 | 1012.1 |
| 20260507122503 | 56 | 203 | 6.0 | 14.0 | 0.00 | 0.01 | 0.00 | 75 | 1012.1 |
| 20260507122004 | 56 | 201 | 6.0 | 16.0 | 0.00 | 0.01 | 0.00 | 76 | 1012.1 |
| 20260507121503 | 56 | 196 | 5.0 | 16.0 | 0.00 | 0.01 | 0.00 | 75 | 1012.1 |
| 20260507121003 | 56 | 219 | 6.0 | 16.0 | 0.00 | 0.01 | 0.00 | 74 | 1011.9 |
| 20260507120503 | 56 | 235 | 5.0 | 16.0 | 0.00 | 0.01 | 0.00 | 76 | 1012.1 |
| 20260507120005 | 56 | 203 | 3.0 | 12.0 | 0.00 | 0.01 | 0.00 | 73 | 1011.9 |
| 20260507115504 | 57 | 222 | 4.0 | 16.0 | 0.00 | 0.01 | 0.00 | 74 | 1012.0 |
| 20260507115005 | 56 | 231 | 5.0 | 16.0 | 0.00 | 0.01 | 0.00 | 75 | 1012.1 |
| 20260507114505 | 56 | 224 | 6.0 | 14.0 | 0.00 | 0.01 | 0.00 | 77 | 1012.1 |
| 20260507114003 | 54 | 229 | 6.0 | 21.0 | 0.00 | 0.01 | 0.00 | 77 | 1011.6 |
| 20260507113503 | 54 | 233 | 7.0 | 21.0 | 0.00 | 0.01 | 0.00 | 78 | 1012.2 |
| 20260507113216 | 54 | 229 | 7.0 | 21.0 | 0.00 | 0.01 | 0.00 | 78 | 1012.0 |
| 20260507112720 | 54 | 213 | 7.0 | 16.0 | 0.00 | 0.01 | 0.00 | 78 | 1012.1 |
| 20260507112217 | 54 | 201 | 4.0 | 12.0 | 0.00 | 0.01 | 0.00 | 80 | 1011.9 |
| 20260507111504 | 54 | 198 | 4.0 | 12.0 | 0.00 | 0.01 | 0.00 | 81 | 1011.6 |
| 20260507111003 | 54 | 194 | 4.0 | 12.0 | 0.00 | 0.01 | 0.00 | 82 | 1012.1 |
| 20260507110505 | 54 | 198 | 4.0 | 12.0 | 0.00 | 0.01 | 0.00 | 82 | 1011.7 |
| 20260507110003 | 54 | 196 | 3.0 | 9.0 | 0.00 | 0.01 | 0.00 | 84 | 1011.7 |
| 20260507105505 | 54 | 193 | 4.0 | 9.0 | 0.00 | 0.01 | 0.00 | 83 | 1012.0 |
| 20260507105005 | 53 | 203 | 3.0 | 9.0 | 0.00 | 0.01 | 0.00 | 83 | 1012.0 |
| 20260507104719 | 53 | 201 | 3.0 | 14.0 | 0.00 | 0.01 | 0.00 | 82 | 1011.8 |
| 20260507104010 | 53 | 195 | 5.0 | 14.0 | 0.00 | 0.01 | 0.00 | 80 | 1011.8 |
| 20260507103505 | 54 | 199 | 5.0 | 14.0 | 0.00 | 0.01 | 0.00 | 79 | 1012.1 |
| 20260507103005 | 54 | 192 | 6.0 | 16.0 | 0.00 | 0.01 | 0.00 | 77 | 1011.7 |
| 20260507102505 | 55 | 189 | 6.0 | 16.0 | 0.00 | 0.01 | 0.00 | 77 | 1011.8 |
| 20260507102006 | 55 | 191 | 5.0 | 16.0 | 0.00 | 0.01 | 0.00 | 78 | 1011.8 |
| 20260507101503 | 55 | 188 | 5.0 | 12.0 | 0.00 | 0.01 | 0.00 | 79 | 1011.8 |
| 20260507101005 | 55 | 183 | 4.0 | 14.0 | 0.00 | 0.01 | 0.00 | 79 | 1011.8 |
| 20260507100505 | 56 | 165 | 4.0 | 16.0 | 0.00 | 0.01 | 0.00 | 78 | 1011.8 |
| 20260507100005 | 55 | 164 | 5.0 | 16.0 | 0.00 | 0.01 | 0.00 | 76 | 1011.9 |
| 20260507095505 | 55 | 168 | 5.0 | 16.0 | 0.00 | 0.01 | 0.00 | 77 | 1011.8 |
| 20260507095005 | 55 | 182 | 5.0 | 16.0 | 0.00 | 0.01 | 0.00 | 74 | 1011.7 |
| 20260507094505 | 55 | 196 | 5.0 | 23.0 | 0.00 | 0.01 | 0.00 | 76 | 1011.9 |
| 20260507094005 | 55 | 180 | 5.0 | 23.0 | 0.00 | 0.01 | 0.00 | 75 | 1011.8 |
| 20260507093505 | 56 | 165 | 7.0 | 14.0 | 0.00 | 0.01 | 0.00 | 74 | 1011.9 |
| 20260507093005 | 56 | 172 | 7.0 | 14.0 | 0.00 | 0.01 | 0.00 | 72 | 1011.9 |
| 20260507092503 | 57 | 181 | 6.0 | 16.0 | 0.00 | 0.01 | 0.00 | 72 | 1011.6 |
| 20260507092005 | 57 | 176 | 6.0 | 18.0 | 0.00 | 0.01 | 0.00 | 74 | 1011.9 |
| 20260507091505 | 56 | 174 | 7.0 | 18.0 | 0.00 | 0.01 | 0.00 | 73 | 1011.6 |
| 20260507091220 | 56 | 159 | 7.0 | 16.0 | 0.00 | 0.01 | 0.00 | 74 | 1011.6 |
| 20260507090503 | 56 | 145 | 9.0 | 18.0 | 0.00 | 0.01 | 0.00 | 74 | 1011.5 |
| 20260507090006 | 55 | 162 | 7.0 | 18.0 | 0.00 | 0.01 | 0.00 | 73 | 1011.6 |
| 20260507085503 | 55 | 187 | 5.0 | 14.0 | 0.00 | 0.01 | 0.00 | 76 | 1011.6 |
| 20260507085005 | 55 | 190 | 5.0 | 14.0 | 0.00 | 0.01 | 0.00 | 76 | 1011.7 |
| 20260507084505 | 55 | 162 | 5.0 | 16.0 | 0.00 | 0.01 | 0.00 | 77 | 1011.7 |
| 20260507084005 | 54 | 157 | 6.0 | 16.0 | 0.00 | 0.01 | 0.00 | 76 | 1011.5 |
| 20260507083503 | 54 | 157 | 6.0 | 18.0 | 0.00 | 0.01 | 0.00 | 79 | 1011.6 |
| 20260507083004 | 54 | 163 | 7.0 | 18.0 | 0.00 | 0.01 | 0.00 | 79 | 1011.6 |
| 20260507082503 | 54 | 182 | 6.0 | 18.0 | 0.00 | 0.01 | 0.00 | 80 | 1011.9 |
| 20260507082005 | 54 | 181 | 5.0 | 18.0 | 0.00 | 0.01 | 0.00 | 80 | 1011.5 |
| 20260507081505 | 54 | 163 | 5.0 | 18.0 | 0.00 | 0.01 | 0.00 | 83 | 1011.5 |
| 20260507081003 | 53 | 147 | 5.0 | 18.0 | 0.00 | 0.01 | 0.00 | 84 | 1011.5 |
| 20260507080503 | 53 | 162 | 4.0 | 18.0 | 0.00 | 0.01 | 0.00 | 84 | 1011.4 |
| 20260507080217 | 53 | 165 | 5.0 | 14.0 | 0.00 | 0.01 | 0.00 | 85 | 1011.5 |
| 20260507075505 | 52 | 165 | 4.0 | 14.0 | 0.00 | 0.01 | 0.00 | 86 | 1011.6 |
| 20260507075005 | 52 | 175 | 3.0 | 14.0 | 0.00 | 0.01 | 0.00 | 87 | 1011.5 |
| 20260507074505 | 52 | 173 | 3.0 | 14.0 | 0.00 | 0.01 | 0.00 | 87 | 1011.3 |
| 20260507074005 | 52 | 169 | 3.0 | 14.0 | 0.00 | 0.01 | 0.00 | 87 | 1011.4 |
| 20260507073503 | 52 | 162 | 4.0 | 12.0 | 0.00 | 0.01 | 0.00 | 88 | 1011.5 |
| 20260507073004 | 52 | 153 | 4.0 | 12.0 | 0.00 | 0.01 | 0.00 | 89 | 1011.4 |
| 20260507072505 | 52 | 157 | 3.0 | 14.0 | 0.00 | 0.01 | 0.00 | 90 | 1011.5 |
| 20260507072005 | 51 | 174 | 1.0 | 14.0 | 0.00 | 0.01 | 0.00 | 91 | 1011.5 |
| 20260507071505 | 51 | 0 | 0.0 | 0.0 | 0.00 | 0.01 | 0.00 | 91 | 1011.4 |
| 20260507071217 | 51 | 0 | 0.0 | 0.0 | 0.00 | 0.01 | 0.00 | 90 | 1011.2 |
| 20260507070505 | 51 | 0 | 0.0 | 0.0 | 0.00 | 0.01 | 0.00 | 90 | 1011.4 |
| 20260507070009 | 51 | 0 | 0.0 | 0.0 | 0.00 | 0.01 | 0.00 | 90 | 1011.4 |
| 20260507065503 | 51 | 167 | 0.0 | 7.0 | 0.00 | 0.01 | 0.00 | 90 | 1011.2 |
| 20260507065005 | 51 | 159 | 1.0 | 7.0 | 0.00 | 0.01 | 0.00 | 90 | 1011.4 |
| 20260507064505 | 51 | 148 | 1.0 | 7.0 | 0.00 | 0.01 | 0.00 | 91 | 1011.4 |
| 20260507064005 | 50 | 153 | 0.0 | 7.0 | 0.00 | 0.01 | 0.00 | 91 | 1011.5 |
| 20260507063504 | 50 | 153 | 0.0 | 4.0 | 0.00 | 0.01 | 0.00 | 92 | 1011.4 |
| 20260507063006 | 49 | 126 | 0.0 | 2.0 | 0.00 | 0.01 | 0.00 | 93 | 1011.5 |
| 20260507062720 | 49 | 126 | 0.0 | 2.0 | 0.00 | 0.01 | 0.00 | 93 | 1011.3 |
| 20260507062003 | 49 | 98 | 0.0 | 7.0 | 0.00 | 0.01 | 0.00 | 93 | 1011.4 |
| 20260507061505 | 49 | 117 | 0.0 | 7.0 | 0.00 | 0.01 | 0.00 | 94 | 1011.4 |
| 20260507061005 | 49 | 157 | 0.0 | 2.0 | 0.00 | 0.01 | 0.00 | 94 | 1011.4 |
| 20260507060505 | 49 | 0 | 0.0 | 0.0 | 0.00 | 0.01 | 0.00 | 94 | 1011.3 |
| 20260507060005 | 49 | 173 | 0.0 | 2.0 | 0.00 | 0.01 | 0.00 | 94 | 1011.2 |
| 20260507055506 | 49 | 143 | 0.0 | 2.0 | 0.00 | 0.01 | 0.00 | 94 | 1011.2 |
| 20260507055005 | 49 | 120 | 0.0 | 2.0 | 0.00 | 0.01 | 0.00 | 94 | 1011.4 |
| 20260507054503 | 48 | 0 | 0.0 | 0.0 | 0.00 | 0.01 | 0.00 | 94 | 1011.3 |
| 20260507054005 | 48 | 0 | 0.0 | 0.0 | 0.00 | 0.01 | 0.00 | 94 | 1011.3 |
| 20260507053722 | 48 | 0 | 0.0 | 0.0 | 0.00 | 0.01 | 0.00 | 94 | 1011.4 |
| 20260507053004 | 48 | 0 | 0.0 | 0.0 | 0.00 | 0.01 | 0.00 | 95 | 1011.2 |
| 20260507052503 | 48 | 0 | 0.0 | 0.0 | 0.00 | 0.01 | 0.00 | 95 | 1011.2 |
| 20260507052005 | 48 | 0 | 0.0 | 0.0 | 0.00 | 0.01 | 0.00 | 95 | 1011.2 |
| 20260507051503 | 47 | 0 | 0.0 | 0.0 | 0.00 | 0.01 | 0.00 | 95 | 1011.2 |
| 20260507051003 | 47 | 0 | 0.0 | 0.0 | 0.00 | 0.01 | 0.00 | 95 | 1011.3 |
| 20260507050504 | 47 | 0 | 0.0 | 0.0 | 0.00 | 0.01 | 0.00 | 95 | 1011.5 |
| 20260507050005 | 47 | 0 | 0.0 | 0.0 | 0.00 | 0.01 | 0.00 | 95 | 1011.3 |
| 20260507045503 | 47 | 0 | 0.0 | 0.0 | 0.00 | 0.01 | 0.00 | 95 | 1011.1 |
| 20260507045005 | 46 | 0 | 0.0 | 0.0 | 0.00 | 0.01 | 0.00 | 95 | 1011.1 |
| 20260507044503 | 46 | 0 | 0.0 | 0.0 | 0.00 | 0.01 | 0.00 | 95 | 1011.4 |
| 20260507044218 | 46 | 0 | 0.0 | 0.0 | 0.00 | 0.01 | 0.00 | 95 | 1011.4 |
| 20260507043505 | 46 | 0 | 0.0 | 0.0 | 0.00 | 0.01 | 0.00 | 95 | 1011.2 |
| 20260507043218 | 46 | 0 | 0.0 | 0.0 | 0.00 | 0.01 | 0.00 | 95 | 1011.2 |
| 20260507042503 | 45 | 0 | 0.0 | 0.0 | 0.00 | 0.01 | 0.00 | 95 | 1011.1 |
| 20260507042003 | 46 | 0 | 0.0 | 0.0 | 0.00 | 0.01 | 0.00 | 95 | 1010.9 |
| 20260507041506 | 46 | 0 | 0.0 | 0.0 | 0.00 | 0.01 | 0.00 | 95 | 1011.3 |
| 20260507041005 | 46 | 0 | 0.0 | 0.0 | 0.00 | 0.01 | 0.00 | 95 | 1011.1 |
| 20260507040505 | 46 | 0 | 0.0 | 0.0 | 0.00 | 0.01 | 0.00 | 95 | 1011.1 |
| 20260507040220 | 45 | 0 | 0.0 | 0.0 | 0.00 | 0.01 | 0.00 | 95 | 1011.2 |
| 20260507035504 | 45 | 0 | 0.0 | 0.0 | 0.00 | 0.01 | 0.00 | 95 | 1011.1 |
| 20260507035003 | 45 | 0 | 0.0 | 0.0 | 0.00 | 0.01 | 0.00 | 95 | 1011.1 |
| 20260507034503 | 45 | 0 | 0.0 | 0.0 | 0.00 | 0.01 | 0.00 | 95 | 1011.1 |
| 20260507034218 | 45 | 0 | 0.0 | 0.0 | 0.00 | 0.01 | 0.00 | 95 | 1011.3 |
| 20260507033505 | 45 | 0 | 0.0 | 0.0 | 0.00 | 0.01 | 0.00 | 95 | 1011.4 |
| 20260507033220 | 45 | 0 | 0.0 | 0.0 | 0.00 | 0.01 | 0.00 | 95 | 1011.5 |
| 20260507032505 | 45 | 0 | 0.0 | 0.0 | 0.00 | 0.01 | 0.00 | 96 | 1011.1 |
| 20260507032005 | 45 | 0 | 0.0 | 0.0 | 0.00 | 0.01 | 0.00 | 96 | 1011.3 |
| 20260507031716 | 45 | 0 | 0.0 | 0.0 | 0.00 | 0.01 | 0.00 | 96 | 1011.0 |
| 20260507031003 | 45 | 0 | 0.0 | 0.0 | 0.00 | 0.01 | 0.00 | 96 | 1011.1 |
| 20260507030503 | 45 | 0 | 0.0 | 0.0 | 0.00 | 0.01 | 0.00 | 96 | 1011.1 |
| 20260507030014 | 45 | 0 | 0.0 | 0.0 | 0.00 | 0.01 | 0.00 | 96 | 1011.1 |
| 20260507025505 | 45 | 0 | 0.0 | 0.0 | 0.00 | 0.01 | 0.00 | 96 | 1011.1 |
| 20260507025005 | 45 | 0 | 0.0 | 0.0 | 0.00 | 0.01 | 0.00 | 96 | 1011.1 |
| 20260507024503 | 45 | 0 | 0.0 | 0.0 | 0.00 | 0.01 | 0.00 | 96 | 1010.9 |
| 20260507024005 | 45 | 0 | 0.0 | 0.0 | 0.00 | 0.01 | 0.00 | 96 | 1011.2 |
| 20260507023503 | 44 | 0 | 0.0 | 0.0 | 0.00 | 0.01 | 0.00 | 96 | 1011.3 |
| 20260507023006 | 44 | 0 | 0.0 | 0.0 | 0.00 | 0.01 | 0.00 | 96 | 1011.1 |
| 20260507022718 | 44 | 0 | 0.0 | 0.0 | 0.00 | 0.01 | 0.00 | 96 | 1011.2 |
| 20260507022005 | 44 | 0 | 0.0 | 0.0 | 0.00 | 0.01 | 0.00 | 96 | 1011.3 |
| 20260507021505 | 44 | 0 | 0.0 | 0.0 | 0.00 | 0.01 | 0.00 | 96 | 1011.3 |
| 20260507021008 | 44 | 0 | 0.0 | 0.0 | 0.00 | 0.01 | 0.00 | 96 | 1011.4 |
| 20260507020505 | 44 | 0 | 0.0 | 0.0 | 0.00 | 0.01 | 0.00 | 96 | 1011.4 |
| 20260507020005 | 44 | 0 | 0.0 | 0.0 | 0.00 | 0.01 | 0.00 | 96 | 1011.3 |
| 20260507015503 | 44 | 0 | 0.0 | 0.0 | 0.00 | 0.01 | 0.00 | 96 | 1011.5 |
| 20260507015005 | 44 | 0 | 0.0 | 0.0 | 0.00 | 0.01 | 0.00 | 96 | 1011.4 |
| 20260507014503 | 44 | 0 | 0.0 | 0.0 | 0.00 | 0.01 | 0.00 | 96 | 1011.7 |
| 20260507014003 | 44 | 0 | 0.0 | 0.0 | 0.00 | 0.01 | 0.00 | 96 | 1011.5 |
| 20260507013718 | 44 | 0 | 0.0 | 0.0 | 0.00 | 0.01 | 0.00 | 96 | 1011.2 |
| 20260507013010 | 44 | 0 | 0.0 | 0.0 | 0.00 | 0.01 | 0.00 | 96 | 1011.3 |
| 20260507012718 | 43 | 0 | 0.0 | 0.0 | 0.00 | 0.01 | 0.00 | 96 | 1011.4 |
| 20260507012003 | 44 | 0 | 0.0 | 0.0 | 0.00 | 0.01 | 0.00 | 96 | 1011.6 |
| 20260507011505 | 43 | 0 | 0.0 | 0.0 | 0.00 | 0.01 | 0.00 | 96 | 1011.6 |
| 20260507011005 | 43 | 0 | 0.0 | 0.0 | 0.00 | 0.01 | 0.00 | 96 | 1011.8 |
| 20260507010505 | 43 | 0 | 0.0 | 0.0 | 0.00 | 0.01 | 0.00 | 96 | 1011.5 |
| 20260507010004 | 43 | 0 | 0.0 | 0.0 | 0.00 | 0.01 | 0.00 | 96 | 1011.7 |
| 20260507005720 | 43 | 0 | 0.0 | 0.0 | 0.00 | 0.01 | 0.00 | 95 | 1011.7 |
| 20260507005005 | 43 | 0 | 0.0 | 0.0 | 0.00 | 0.01 | 0.00 | 95 | 1011.6 |
| 20260507004717 | 43 | 0 | 0.0 | 0.0 | 0.00 | 0.01 | 0.00 | 95 | 1011.6 |
| 20260507004003 | 43 | 0 | 0.0 | 0.0 | 0.00 | 0.01 | 0.00 | 95 | 1011.7 |
| 20260507003505 | 43 | 0 | 0.0 | 0.0 | 0.00 | 0.01 | 0.00 | 95 | 1011.5 |
| 20260507003005 | 43 | 0 | 0.0 | 0.0 | 0.00 | 0.01 | 0.00 | 95 | 1012.0 |
| 20260507002505 | 43 | 0 | 0.0 | 0.0 | 0.00 | 0.01 | 0.00 | 95 | 1011.8 |
| 20260507002218 | 43 | 0 | 0.0 | 0.0 | 0.00 | 0.01 | 0.00 | 95 | 1011.6 |
| 20260507001505 | 43 | 0 | 0.0 | 0.0 | 0.00 | 0.01 | 0.00 | 95 | 1011.9 |
| 20260507001216 | 43 | 0 | 0.0 | 0.0 | 0.00 | 0.01 | 0.00 | 95 | 1011.8 |
| 20260507000719 | 43 | 0 | 0.0 | 0.0 | 0.00 | 0.01 | 0.00 | 95 | 1011.8 |
| 20260507000005 | 43 | 0 | 0.0 | 0.0 | 0.00 | 0.01 | 0.00 | 95 | 1011.9 |
| 20260506235505 | 43 | 0 | 0.0 | 0.0 | 0.00 | 0.01 | 0.00 | 95 | 1012.0 |
| 20260506235006 | 42 | 0 | 0.0 | 0.0 | 0.00 | 0.01 | 0.00 | 95 | 1012.0 |
| 20260506234503 | 42 | 0 | 0.0 | 0.0 | 0.00 | 0.01 | 0.00 | 95 | 1011.9 |
| 20260506234005 | 42 | 0 | 0.0 | 0.0 | 0.00 | 0.01 | 0.00 | 95 | 1011.9 |
| 20260506233503 | 42 | 0 | 0.0 | 0.0 | 0.00 | 0.01 | 0.00 | 95 | 1011.9 |
| 20260506233005 | 42 | 0 | 0.0 | 0.0 | 0.00 | 0.01 | 0.00 | 95 | 1012.0 |
| 20260506232504 | 42 | 0 | 0.0 | 0.0 | 0.00 | 0.01 | 0.00 | 95 | 1011.9 |
| 20260506232005 | 42 | 0 | 0.0 | 0.0 | 0.00 | 0.01 | 0.00 | 94 | 1011.7 |
| 20260506231504 | 42 | 0 | 0.0 | 0.0 | 0.00 | 0.01 | 0.00 | 94 | 1011.8 |
| 20260506231003 | 42 | 0 | 0.0 | 0.0 | 0.00 | 0.01 | 0.00 | 94 | 1012.2 |
| 20260506230503 | 42 | 0 | 0.0 | 0.0 | 0.00 | 0.01 | 0.00 | 94 | 1012.0 |
| 20260506230003 | 42 | 0 | 0.0 | 0.0 | 0.00 | 0.01 | 0.00 | 94 | 1012.0 |
| 20260506225505 | 41 | 0 | 0.0 | 0.0 | 0.00 | 0.01 | 0.01 | 94 | 1012.2 |
| 20260506225006 | 41 | 0 | 0.0 | 0.0 | 0.00 | 0.01 | 0.01 | 94 | 1012.0 |
| 20260506224503 | 41 | 0 | 0.0 | 0.0 | 0.00 | 0.01 | 0.01 | 94 | 1012.0 |
| 20260506224005 | 41 | 0 | 0.0 | 0.0 | 0.00 | 0.01 | 0.01 | 93 | 1011.8 |
| 20260506223503 | 41 | 61 | 0.0 | 2.0 | 0.00 | 0.01 | 0.01 | 93 | 1011.9 |
| 20260506223005 | 41 | 61 | 0.0 | 2.0 | 0.00 | 0.01 | 0.01 | 93 | 1011.9 |
| 20260506222505 | 41 | 0 | 0.0 | 0.0 | 0.00 | 0.01 | 0.01 | 93 | 1011.8 |
| 20260506222003 | 41 | 0 | 0.0 | 0.0 | 0.00 | 0.01 | 0.01 | 93 | 1011.9 |
| 20260506221506 | 41 | 0 | 0.0 | 0.0 | 0.00 | 0.01 | 0.01 | 93 | 1011.9 |
| 20260506221005 | 41 | 0 | 0.0 | 0.0 | 0.00 | 0.01 | 0.01 | 92 | 1011.9 |
| 20260506220503 | 42 | 0 | 0.0 | 0.0 | 0.00 | 0.01 | 0.01 | 92 | 1011.8 |
| 20260506220005 | 42 | 0 | 0.0 | 0.0 | 0.00 | 0.01 | 0.01 | 92 | 1011.9 |
| 20260506215503 | 42 | 0 | 0.0 | 0.0 | 0.00 | 0.01 | 0.01 | 92 | 1011.8 |
| 20260506215004 | 42 | 0 | 0.0 | 0.0 | 0.00 | 0.01 | 0.01 | 91 | 1011.8 |
| 20260506214505 | 43 | 0 | 0.0 | 0.0 | 0.00 | 0.01 | 0.01 | 91 | 1011.6 |
| 20260506214005 | 43 | 0 | 0.0 | 0.0 | 0.00 | 0.01 | 0.01 | 91 | 1011.7 |
| 20260506213505 | 43 | 0 | 0.0 | 0.0 | 0.00 | 0.01 | 0.01 | 91 | 1011.7 |
| 20260506213005 | 44 | 0 | 0.0 | 0.0 | 0.00 | 0.01 | 0.01 | 90 | 1011.8 |
| 20260506212505 | 43 | 0 | 0.0 | 0.0 | 0.00 | 0.01 | 0.01 | 90 | 1011.8 |
| 20260506212005 | 43 | 0 | 0.0 | 0.0 | 0.00 | 0.01 | 0.01 | 90 | 1011.9 |
| 20260506211718 | 44 | 0 | 0.0 | 0.0 | 0.00 | 0.01 | 0.01 | 90 | 1011.7 |